Location: Cuzcurrita-R�o Tir�n
(42.5415°N, 2.9642°W)
Time: 09:33:08
(UTC+00:00)

Meteor 1-19 Rocket - Pass Details

Date: 27 February 2020
Orbit: 813 x 921 km, 81.2° (Epoch: 04 April)

Event Time Altitude Azimuth Distance (km) Brightness Sun altitude
Rises 19:02:17 0° 354° (N) 3,498 7.5 -12.5°
Reaches altitude 10° 19:04:50 10° 359° (N) 2,538 6.7 -13.0°
Maximum altitude 19:10:28 54° 76° (ENE) 1,036 4.3 -14.0°
Drops below altitude 10° 19:15:54 10° 153° (SSE) 2,450 6.3 -15.0°
Sets 19:18:20 0° 158° (SSE) 3,366 7.1 -15.5°
